Hourly Data Report for October 30, 2013

All times are specified in Local Standard Time (LST). Add 1 hour to adjust for Daylight Saving Time where and when it is observed.

IQALUIT CLIMATE
NUNAVUT

63°44'50.000" N
68°32'40.000" W
33.50 m
2402592
71321
XFB

Download Data

Hourly Data (October 2013)
Hourly Data Report for October 30, 2013
Temp Definition
°C
Dew Point Temp Definition
°C
Rel Hum Definition
%
Wind Dir Definition
10's deg

Wind Spd Definition
km/h
Visibility Definition
km
Stn Press Definition
kPa
Hmdx Definition


Wind Chill Definition


Weather Definition


TIME
00:00 -8.6 -9.9 90 33 6   99.99   -12 LegendNANA
01:00 -10.0 -10.8 94 19 2   100.04   -11 LegendNANA
02:00 -10.9 -12.5 88 21 4   100.11   -13 LegendNANA
03:00 -11.7 -12.5 94 36 4   100.16   -14 LegendNANA
04:00 -11.4 -12.3 93 1 6   100.19   -15 LegendNANA
05:00 -9.7 -10.6 93 36 6   100.23   -13 LegendNANA
06:00 -9.0 -10.3 90 34 4   100.26   -11 LegendNANA
07:00 -8.4 -10.0 88 29 6   100.30   -12 LegendNANA
08:00 -8.5 -9.7 91 32 6   100.30   -12 LegendNANA
09:00 -8.1 -10.0 86 31 9   100.32   -13 LegendNANA
10:00 -7.9 -9.7 87 31 7   100.32   -12 LegendNANA
11:00 -8.0 -10.4 83 32 6   100.31   -11 LegendNANA
12:00 -8.1 -10.1 85 32 9   100.33   -13 LegendNANA
13:00 -8.1 -10.1 85 33 9   100.33   -13 LegendNANA
14:00 -8.3 -10.2 86 33 13   100.37   -14 LegendNANA
15:00 -8.8 -10.1 90 31 13   100.40   -15 LegendNANA
16:00 -9.3 -10.6 90 31 13   100.42   -15 LegendNANA
17:00 -10.2 -11.4 91 34 15   100.42   -17 LegendNANA
18:00 -9.4 -10.9 89 33 11   100.45   -15 LegendNANA
19:00 -9.8 -11.3 89 34 11   100.47   -15 LegendNANA
20:00 -11.0 -12.3 90 32 11   100.48   -17 LegendNANA
21:00 -9.6 -10.8 91 32 13   100.48   -16 LegendNANA
22:00 -9.1 -10.3 91 32 9   100.47   -14 LegendNANA
23:00 -8.8 -9.9 92 32 11   100.43   -14 LegendNANA

Notes on Data Quality.

Legend

  • E = Estimated
  • M = Missing
  • NA = Not Available
  • ‡ = Partner data that is not subject to review by the National Climate Archives
Date modified: